PEGASUS DEB, 24239

Orbit data source: Space-Track

PEGASUS DEB, 24239 is space debris in LEO originally from a launch on Thu, 19 May 1994 UTC launched from the Air Force Western Test Range (AFWTR). Debris objects in space refer to the collection of defunct objects orbiting the Earth. Examples of debris include non-operational satellites, rocket bodies, and fragments generated from explosions, collisions, or faulty payload assembly.

Loading next visibility...
Identifier
24239, 1994-029LN
Orbit
LEO
Country
Flag of USUS
Related business
Manufacturer
Unknown
Mission
Spacecraft
Bus & Motor
Unknown
Mass
Unknown
Launch date (UTC)
1994-05-19 (32 years ago)
Launch vehicle
Unknown
Launch site
Air Force Western Test Range (AFWTR)
Object type
Payload
Rocket body
Debris
Shape & HBR
Unknown shape, 0.1 m
Radar Cross Section
Small (<0.1 m²)

Expand to show TLE details & history
Last TLE update: 8 hours ago

TLE from 8 hours ago
0 PEGASUS DEB
1 24239U 94029LN  26063.55983953  .00014056  00000-0  15734-2 0  9996
2 24239  81.5073 270.8563 0143227 181.7816 178.2905 14.79547538560789
Epoch: 2026-03-04T13:26Z
TLE epoch observation values (Epoch: 2026-03-04T13:26:10.135Z)
Latitude
-0.00007°
Longitude
-93.00874°
Altitude
734.12 km
Speed
7.434 km/s
True Right ascension
18h 03m 25s
True Declination
0° 00' 00"
Sunlit
Object was in daylight at epoch
Visualization orbit readout
Latitude
Unknown
Longitude
Unknown
Altitude
Unknown
Speed
Unknown
Apparent Right ascension
Unknown
Apparent Declination
Unknown
Sunlit
N/A
Visualization observer readout
Local Sidereal Time
01:38:53
Azimuth
Unknown
Elevation
Unknown
Doppler factor
Unknown
Orbital elements
Apogee altitude
728.165 km
Perigee altitude
527.477 km
Semi-major axis
7,005.958 km
Eccentricity
0.01432
Inclination
81.5073°
RAAN
270.8563°
Arg. of periapsis
181.7816°
True anomaly
178.3386°
Mean anomaly
178.2905°
Eccentric anomaly
178.31464°
Mean motion
3.70119 °/min
Orbital period
97.27 mins
BSTAR
0.0015734
Loading maneuver chart data...
Computing Atmospheric mass density...

Documentation

Showing up to 5 results
|